Regional Weather Roundup
Issued by NWS New Orleans/Baton Rouge, LA

Home | Current Version | Previous Version | Graphics & Text | Print | Product List | Glossary On
Versions: 1 2 3 4 5 6 7 8 9 10 11 12 13 14 15 16 17 18 19 20 21 22 23 24 25 26 27 28 29 30 31 32 33 34 35 36 37 38 39 40 41 42 43 44 45 46 47 48 49 50
724
ASUS44 KLIX 202001
RWRLIX
NEW ORLEANS REGIONAL WEATHER ROUNDUP
NATIONAL WEATHER SERVICE NEW ORLEANS LA
300 PM CDT WED AUG 20 2014

NOTE: "FAIR" INDICATES FEW OR NO CLOUDS BELOW 12,000 FEET WITH NO
      SIGNIFICANT WEATHER AND/OR OBSTRUCTIONS TO VISIBILITY.
      SKY/WX - SKY CONDITION AND SIGNIFICANT WEATHER.
      TMP - AIR TEMPERATURE.     DP    - DEWPOINT TEMPERATURE.
      RH  - RELATIVE HUMIDITY.   PRES  - PRESSURE.
      HI  - HEAT INDEX.          WCI   - WIND CHILL INDEX.

*  THESE STATIONS ARE NOT NWS OR FAA STATIONS AND ARE NOT UNDER
   NWS QUALITY CONTROL.

LAZ038-040-048-061>063-065>067-069-202100-
SOUTHEAST LOUISIANA

CITY           SKY/WX    TMP DP  RH WIND       PRES   REMARKS
N.O. AUDUBON     N/A     80  70  70 MISG        N/A
N.O. INTL ARPT LGT RAIN  85  74  69 CALM      30.06S
N.O. LAKEFRONT PTSUNNY   82  73  74 SE9       30.06F HAZE
N.O. DOWNTOWN* MOCLDY    86  70  58 SE6       30.07S
SLIDELL        PTSUNNY   94  71  47 SW6       30.03F HX 101
BATON ROUGE    CLOUDY    82  74  76 SW10      30.03F THUNDER
BOOTHVILLE     PTSUNNY   89  77  67 S8        30.07F HX 101
BELLE CHASSE   CLOUDY    83  69  62 E9        30.05F THUNDER
BOGALUSA*        N/A     94  70  45 CALM      30.06F HX 101
GALLIANO*      NOT AVBL
NEW ROADS*     MOCLDY    91  74  57 S6        30.03S THUNDER HX 100
GONZALES*      TSTM      79  76  90 E7G17     30.06R
HAMMOND*       NOT AVBL
HOUMA*         PTSUNNY   84  72  65 N7        30.06R THUNDER
PORT FOURCHON* PTCLDY    90  75  62 VRB6G12   30.07F HX 100

$$

MSZ070-080>082-202100-
SOUTHERN MISSISSIPPI

CITY           SKY/WX    TMP DP  RH WIND       PRES   REMARKS
MCCOMB         MOSUNNY   93  67  42 W5        30.04F HX  96
GULFPORT       MOSUNNY   92  75  57 S10       30.05F HX 103
BILOXI         MOSUNNY   92  76  59 S12       30.05F HX 104
PASCAGOULA     MOSUNNY   91  76  61 S7        30.05F HX 103
STENNIS ARPT*  MOSUNNY  N/A N/A N/A E6        30.05F

$$

COASTAL OBSERVATIONS
LAKE AND NEARSHORE STATIONS

STATION/POSITION TIME  TEMP    WIND        PRES    WAVE
                       AIR SEA DIR/SP/G            HT/PER
                 (UTC) (F)     (DEG/KT/KT) (MB)    (FT/S)
PASCAGOULA       1900   89     210/  9/ 12 1017.6
WAVELAND YACHT   1900   86     170/  9/ 12 1017.6
GRAND ISLE       1900   89 88  170/  5/  9 1018.9
SOUTHWEST PASS   1900   89 90  170/  5/  7 1018.7
NEW CANAL        1900   84 84   50/  1/  5 1018.3
SHELL BEACH      1900   81 83  240/  7/ 10 1018.5

OFFSHORE STATIONS

STATION/POSITION TIME  TEMP    WIND        PRES    WAVE
                       AIR SEA DIR/SP/G            HT/PER
                 (UTC) (F)     (DEG/KT/KT) (MB)    (FT/S)
64 S DAUPHIN ISL 1857   87 91   CALM  /  2 1018.6

$$




USA.gov is the U.S. government's official web portal to all federal, state and local government web resources and services.